When you browse on this site, cookies collect data to enhance your experience and personalize the content and advertising you see.
Visit our Privacy Policy to learn more. By continuing to use the site, you agree to this use of cookies and data.
  • In Spain
  • List of Countries
  • For 7 days
  • Water Temperature
  • Weather Map
  • Weather Widgets
  • user-avatar
    Login

    Hourly Weather Satif

    Today, 1 April, Wednesday

    Time Temperature Precipitation Wind Pressure Humidity
    00:00 +8°C° 0 mm 4 mps 668 mmHg 60%
    01:00 +8°C° 0 mm 4 mps 668 mmHg 59%
    02:00 +8°C° 0 mm 4 mps 668 mmHg 57%
    03:00 +8°C° 0 mm 4 mps 668 mmHg 56%
    04:00 +9°C° 0 mm 3 mps 668 mmHg 56%
    05:00 +9°C° 0 mm 3 mps 668 mmHg 57%
    06:00 +9°C° 0 mm 2 mps 668 mmHg 57%
    07:00 +11°C° 0 mm 4 mps 669 mmHg 51%
    08:00 +13°C° 0 mm 5 mps 669 mmHg 44%
    09:00 +15°C° 0 mm 6 mps 670 mmHg 38%
    10:00 +16°C° 0 mm 6 mps 670 mmHg 37%
    11:00 +17°C° 0 mm 7 mps 670 mmHg 35%
    12:00 +18°C° 0 mm 7 mps 670 mmHg 34%
    13:00 +17°C° 0 mm 7 mps 669 mmHg 35%
    14:00 +17°C° 0 mm 6 mps 669 mmHg 37%
    15:00 +17°C° 0 mm 6 mps 668 mmHg 38%
    16:00 +15°C° 0 mm 4 mps 668 mmHg 44%
    17:00 +13°C° 0 mm 3 mps 667 mmHg 50%
    18:00 +13°C° 0 mm 1 mps 667 mmHg 57%
    19:00 +10°C° 0 mm 2 mps 667 mmHg 64%
    20:00 +9°C° 0 mm 3 mps 667 mmHg 71%
    21:00 +8°C° 0 mm 3 mps 668 mmHg 79%
    22:00 +8°C° 0 mm 3 mps 667 mmHg 82%
    23:00 +8°C° 0 mm 2 mps 667 mmHg 85%

    Tomorrow, 2 April, Thursday

    Time Temperature Precipitation Wind Pressure Humidity
    00:00 +7°C° 0 mm 2 mps 667 mmHg 89%
    01:00 +8°C° 0 mm 1 mps 667 mmHg 88%
    02:00 +8°C° 0 mm 1 mps 666 mmHg 87%
    03:00 +8°C° 0 mm 1 mps 666 mmHg 86%
    04:00 +8°C° 0 mm 1 mps 666 mmHg 86%
    05:00 +8°C° 0 mm 1 mps 666 mmHg 85%
    06:00 +8°C° 0 mm 1 mps 666 mmHg 85%
    07:00 +10°C° 0 mm 1 mps 666 mmHg 78%
    08:00 +10°C° 0 mm 2 mps 667 mmHg 72%
    09:00 +13°C° 0 mm 2 mps 667 mmHg 65%
    10:00 +13°C° 0.1 mm 2 mps 667 mmHg 62%
    11:00 +14°C° 0.1 mm 2 mps 667 mmHg 59%
    12:00 +14°C° 0.1 mm 2 mps 667 mmHg 56%
    13:00 +13°C° 0.2 mm 3 mps 667 mmHg 56%
    14:00 +13°C° 0.2 mm 4 mps 667 mmHg 56%
    15:00 +13°C° 0.2 mm 4 mps 666 mmHg 57%
    16:00 +12°C° 0.1 mm 4 mps 666 mmHg 63%
    17:00 +11°C° 0.1 mm 3 mps 666 mmHg 69%
    18:00 +9°C° 0.1 mm 3 mps 666 mmHg 75%
    19:00 +9°C° 0.1 mm 2 mps 666 mmHg 79%
    20:00 +8°C° 0.1 mm 2 mps 666 mmHg 83%
    21:00 +8°C° 0.1 mm 1 mps 667 mmHg 87%
    22:00 +8°C° 0.2 mm 1 mps 667 mmHg 87%
    23:00 +8°C° 0.2 mm 1 mps 666 mmHg 88%

    Day after tomorrow, 3 April, Friday

    Time Temperature Precipitation Wind Pressure Humidity
    00:00 +7°C° 0.2 mm 1 mps 666 mmHg 89%
    01:00 +7°C° 0 mm 1 mps 666 mmHg 90%
    02:00 +7°C° 0 mm 1 mps 665 mmHg 90%
    03:00 +6°C° 0 mm 1 mps 665 mmHg 91%
    04:00 +7°C° 0.1 mm 1 mps 665 mmHg 90%
    05:00 +7°C° 0.1 mm 1 mps 665 mmHg 88%
    06:00 +6°C° 0.1 mm 2 mps 665 mmHg 87%
    07:00 +7°C° 0.4 mm 2 mps 665 mmHg 82%
    08:00 +8°C° 0.4 mm 2 mps 666 mmHg 76%
    09:00 +9°C° 0.4 mm 2 mps 666 mmHg 70%
    10:00 +9°C° 1 mm 3 mps 666 mmHg 69%
    11:00 +10°C° 1 mm 3 mps 666 mmHg 68%
    12:00 +10°C° 1 mm 3 mps 666 mmHg 67%
    13:00 +9°C° 1.1 mm 3 mps 666 mmHg 69%
    14:00 +8°C° 1.1 mm 4 mps 665 mmHg 72%
    15:00 +7°C° 1.1 mm 4 mps 665 mmHg 75%
    16:00 +7°C° 0.2 mm 4 mps 666 mmHg 77%
    17:00 +6°C° 0.2 mm 4 mps 666 mmHg 80%
    18:00 +7°C° 0.2 mm 3 mps 666 mmHg 83%
    19:00 +5°C° 0 mm 3 mps 667 mmHg 86%
    20:00 +6°C° 0 mm 2 mps 667 mmHg 90%
    21:00 +5°C° 0 mm 2 mps 668 mmHg 94%
    22:00 +5°C° 0 mm 2 mps 668 mmHg 93%
    23:00 +6°C° 0 mm 2 mps 668 mmHg 93%

    4 April, Saturday

    Time Temperature Precipitation Wind Pressure Humidity
    00:00 +6°C° 0 mm 2 mps 669 mmHg 92%
    01:00 +6°C° 0 mm 2 mps 669 mmHg 92%
    02:00 +6°C° 0 mm 2 mps 669 mmHg 93%
    03:00 +6°C° 0 mm 2 mps 669 mmHg 93%
    04:00 +6°C° 0.1 mm 2 mps 669 mmHg 94%
    05:00 +6°C° 0.1 mm 2 mps 669 mmHg 94%
    06:00 +6°C° 0.1 mm 2 mps 670 mmHg 94%
    07:00 +7°C° 0.1 mm 2 mps 670 mmHg 89%
    08:00 +7°C° 0.1 mm 2 mps 671 mmHg 84%
    09:00 +8°C° 0.1 mm 2 mps 671 mmHg 78%
    10:00 +9°C° 0.1 mm 2 mps 671 mmHg 74%
    11:00 +10°C° 0.1 mm 2 mps 672 mmHg 70%
    12:00 +11°C° 0.1 mm 1 mps 672 mmHg 66%
    13:00 +12°C° 0.1 mm 1 mps 672 mmHg 65%
    14:00 +12°C° 0.1 mm 1 mps 671 mmHg 63%
    15:00 +12°C° 0.1 mm 1 mps 671 mmHg 62%
    16:00 +12°C° 0.1 mm 1 mps 671 mmHg 66%
    17:00 +11°C° 0.1 mm 1 mps 671 mmHg 70%
    18:00 +11°C° 0.1 mm 1 mps 671 mmHg 74%
    19:00 +10°C° 0 mm 1 mps 671 mmHg 79%
    20:00 +8°C° 0 mm 1 mps 672 mmHg 84%
    21:00 +7°C° 0 mm 1 mps 672 mmHg 89%
    22:00 +7°C° 0 mm 1 mps 672 mmHg 89%
    23:00 +7°C° 0 mm 1 mps 672 mmHg 89%

    5 April, Sunday

    Time Temperature Precipitation Wind Pressure Humidity
    00:00 +7°C° 0 mm 1 mps 671 mmHg 89%
    01:00 +7°C° 0 mm 1 mps 671 mmHg 87%
    02:00 +6°C° 0 mm 1 mps 671 mmHg 86%
    03:00 +6°C° 0 mm 1 mps 670 mmHg 84%
    04:00 +7°C° 0 mm 1 mps 670 mmHg 82%
    05:00 +6°C° 0 mm 2 mps 671 mmHg 79%
    06:00 +7°C° 0 mm 2 mps 671 mmHg 77%
    07:00 +9°C° 0 mm 3 mps 671 mmHg 68%
    08:00 +11°C° 0 mm 3 mps 672 mmHg 59%
    09:00 +13°C° 0 mm 4 mps 673 mmHg 51%
    10:00 +14°C° 0 mm 5 mps 673 mmHg 47%
    11:00 +15°C° 0 mm 5 mps 673 mmHg 44%
    12:00 +16°C° 0 mm 5 mps 673 mmHg 41%
    13:00 +16°C° 0 mm 5 mps 673 mmHg 42%
    14:00 +16°C° 0 mm 5 mps 672 mmHg 43%
    15:00 +16°C° 0 mm 5 mps 672 mmHg 45%
    16:00 +15°C° 0 mm 4 mps 672 mmHg 51%
    17:00 +13°C° 0 mm 4 mps 671 mmHg 57%
    18:00 +12°C° 0 mm 3 mps 671 mmHg 63%
    19:00 +13°C° 0 mm 2 mps 671 mmHg 64%
    20:00 +12°C° 0 mm 1 mps 672 mmHg 66%
    21:00 +12°C° 0 mm 1 mps 672 mmHg 68%
    22:00 +11°C° 0 mm 1 mps 672 mmHg 68%
    23:00 +11°C° 0 mm 1 mps 672 mmHg 68%

    6 April, Monday

    Time Temperature Precipitation Wind Pressure Humidity
    00:00 +10°C° 0 mm 1 mps 672 mmHg 68%
    01:00 +10°C° 0 mm 1 mps 671 mmHg 69%
    02:00 +10°C° 0 mm 1 mps 671 mmHg 70%
    03:00 +9°C° 0 mm 1 mps 671 mmHg 70%
    04:00 +10°C° 0 mm 1 mps 671 mmHg 71%
    05:00 +10°C° 0 mm 1 mps 671 mmHg 71%
    06:00 +10°C° 0 mm 1 mps 672 mmHg 72%
    07:00 +12°C° 0 mm 1 mps 672 mmHg 65%
    08:00 +14°C° 0 mm 2 mps 673 mmHg 57%
    09:00 +16°C° 0 mm 2 mps 674 mmHg 50%
    10:00 +17°C° 0 mm 3 mps 674 mmHg 48%
    11:00 +18°C° 0 mm 4 mps 674 mmHg 46%
    12:00 +19°C° 0 mm 4 mps 675 mmHg 45%
    13:00 +18°C° 0.3 mm 4 mps 674 mmHg 48%
    14:00 +18°C° 0.3 mm 4 mps 674 mmHg 52%
    15:00 +17°C° 0.3 mm 4 mps 674 mmHg 56%
    16:00 +16°C° 0.4 mm 3 mps 673 mmHg 63%
    17:00 +13°C° 0.4 mm 3 mps 673 mmHg 70%
    18:00 +13°C° 0.4 mm 2 mps 673 mmHg 77%
    19:00 +13°C° 0.1 mm 1 mps 673 mmHg 78%
    20:00 +12°C° 0.1 mm 1 mps 674 mmHg 79%
    21:00 +12°C° 0.1 mm 1 mps 674 mmHg 80%
    22:00 +11°C° 0 mm 1 mps 674 mmHg 81%
    23:00 +11°C° 0 mm 1 mps 674 mmHg 82%
    Show more